| time (UTC) | temp F | wind direction | speed MPH | gust MPH | rain 1hr in | rain 24hr in | rain mn in | humidity % | barometer mb |
| 20260509233007 | 77 | 5 | 7.0 | 12.0 | 0.00 | 0.00 | 0.00 | 48 | 1014.8 |
| 20260509232506 | 76 | 356 | 6.0 | 11.0 | 0.00 | 0.00 | 0.00 | 47 | 1014.8 |
| 20260509232005 | 76 | 359 | 7.0 | 11.0 | 0.00 | 0.00 | 0.00 | 50 | 1014.9 |
| 20260509231501 | 76 | 21 | 7.0 | 11.0 | 0.00 | 0.00 | 0.00 | 46 | 1015.0 |
| 20260509231003 | 76 | 16 | 7.0 | 11.0 | 0.00 | 0.00 | 0.00 | 50 | 1015.1 |
| 20260509230458 | 76 | 11 | 7.0 | 12.0 | 0.00 | 0.00 | 0.00 | 48 | 1015.1 |
| 20260509225958 | 76 | 352 | 6.0 | 12.0 | 0.00 | 0.00 | 0.00 | 50 | 1015.2 |
| 20260509225458 | 77 | 333 | 6.0 | 12.0 | 0.00 | 0.00 | 0.00 | 50 | 1015.3 |
| 20260509224956 | 76 | 344 | 7.0 | 18.0 | 0.00 | 0.00 | 0.00 | 52 | 1015.5 |
| 20260509224719 | 76 | 344 | 7.0 | 18.0 | 0.00 | 0.00 | 0.00 | 53 | 1015.6 |
| 20260509223954 | 76 | 344 | 7.0 | 15.0 | 0.00 | 0.00 | 0.00 | 54 | 1015.6 |
| 20260509223454 | 76 | 348 | 8.0 | 15.0 | 0.00 | 0.00 | 0.00 | 53 | 1015.6 |
| 20260509222953 | 77 | 348 | 7.0 | 13.0 | 0.00 | 0.00 | 0.00 | 53 | 1015.6 |
| 20260509222454 | 76 | 6 | 6.0 | 12.0 | 0.00 | 0.00 | 0.00 | 53 | 1015.7 |
| 20260509221954 | 76 | 19 | 5.0 | 11.0 | 0.00 | 0.00 | 0.00 | 51 | 1015.8 |
| 20260509221451 | 76 | 345 | 5.0 | 10.0 | 0.00 | 0.00 | 0.00 | 54 | 1015.8 |
| 20260509221210 | 76 | 31 | 6.0 | 10.0 | 0.00 | 0.00 | 0.00 | 53 | 1015.9 |
| 20260509220450 | 76 | 76 | 7.0 | 13.0 | 0.00 | 0.00 | 0.00 | 50 | 1016.0 |
| 20260509215949 | 75 | 48 | 7.0 | 13.0 | 0.00 | 0.00 | 0.00 | 55 | 1016.2 |
| 20260509215449 | 75 | 350 | 7.0 | 12.0 | 0.00 | 0.00 | 0.00 | 54 | 1016.2 |
| 20260509214947 | 75 | 6 | 7.0 | 12.0 | 0.00 | 0.00 | 0.00 | 55 | 1016.3 |
| 20260509214446 | 74 | 4 | 7.0 | 12.0 | 0.00 | 0.00 | 0.00 | 55 | 1016.5 |
| 20260509213946 | 75 | 64 | 7.0 | 12.0 | 0.00 | 0.00 | 0.00 | 55 | 1016.6 |
| 20260509213445 | 76 | 29 | 7.0 | 13.0 | 0.00 | 0.00 | 0.00 | 56 | 1016.5 |
| 20260509212945 | 75 | 8 | 7.0 | 13.0 | 0.00 | 0.00 | 0.00 | 54 | 1016.5 |
| 20260509212445 | 75 | 2 | 8.0 | 14.0 | 0.00 | 0.00 | 0.00 | 53 | 1016.4 |
| 20260509211942 | 75 | 349 | 7.0 | 14.0 | 0.00 | 0.00 | 0.00 | 53 | 1016.6 |
| 20260509211444 | 75 | 5 | 6.0 | 12.0 | 0.00 | 0.00 | 0.00 | 55 | 1016.6 |
| 20260509210944 | 75 | 352 | 5.0 | 11.0 | 0.00 | 0.00 | 0.00 | 59 | 1016.6 |
| 20260509210702 | 75 | 4 | 6.0 | 13.0 | 0.00 | 0.00 | 0.00 | 56 | 1016.5 |
| 20260509210205 | 75 | 9 | 7.0 | 13.0 | 0.00 | 0.00 | 0.00 | 56 | 1016.7 |
| 20260509205440 | 73 | 13 | 6.0 | 11.0 | 0.00 | 0.00 | 0.00 | 58 | 1016.9 |
| 20260509204939 | 72 | 352 | 6.0 | 13.0 | 0.00 | 0.00 | 0.00 | 58 | 1016.8 |
| 20260509204439 | 74 | 356 | 7.0 | 14.0 | 0.00 | 0.00 | 0.00 | 54 | 1016.8 |
| 20260509203937 | 74 | 13 | 7.0 | 14.0 | 0.00 | 0.00 | 0.00 | 54 | 1016.9 |
| 20260509203659 | 75 | 343 | 6.0 | 13.0 | 0.00 | 0.00 | 0.00 | 57 | 1017.1 |
| 20260509202936 | 74 | 329 | 6.0 | 12.0 | 0.00 | 0.00 | 0.00 | 57 | 1017.0 |
| 20260509202433 | 74 | 28 | 7.0 | 12.0 | 0.00 | 0.00 | 0.00 | 58 | 1017.1 |
| 20260509201935 | 73 | 358 | 6.0 | 10.0 | 0.00 | 0.00 | 0.00 | 61 | 1017.1 |
| 20260509201435 | 72 | 354 | 6.0 | 12.0 | 0.00 | 0.00 | 0.00 | 62 | 1017.1 |
| 20260509201412 | 71 | 334 | 6.0 | 12.0 | 0.00 | 0.00 | 0.00 | 59 | 1017.2 |
| 20260509200428 | 73 | 27 | 7.0 | 12.0 | 0.00 | 0.00 | 0.00 | 60 | 1017.2 |
| 20260509200152 | 71 | 338 | 8.0 | 12.0 | 0.00 | 0.00 | 0.00 | 61 | 1017.3 |
| 20260509195645 | 71 | 19 | 7.0 | 12.0 | 0.00 | 0.00 | 0.00 | 60 | 1017.4 |
| 20260509194922 | 72 | 34 | 6.0 | 11.0 | 0.00 | 0.00 | 0.00 | 60 | 1017.4 |
| 20260509194423 | 72 | 22 | 5.0 | 10.0 | 0.00 | 0.00 | 0.00 | 61 | 1017.5 |
| 20260509193922 | 71 | 340 | 5.0 | 10.0 | 0.00 | 0.00 | 0.00 | 62 | 1017.5 |
| 20260509193909 | 71 | 353 | 6.0 | 11.0 | 0.00 | 0.00 | 0.00 | 63 | 1017.4 |
| 20260509193135 | 70 | 338 | 7.0 | 13.0 | 0.00 | 0.00 | 0.00 | 62 | 1017.5 |
| 20260509192415 | 70 | 9 | 7.0 | 13.0 | 0.00 | 0.00 | 0.00 | 64 | 1017.6 |
| 20260509192134 | 70 | 357 | 6.0 | 13.0 | 0.00 | 0.00 | 0.00 | 62 | 1017.6 |
| 20260509191410 | 69 | 358 | 6.0 | 11.0 | 0.00 | 0.00 | 0.00 | 67 | 1017.8 |
| 20260509190907 | 69 | 27 | 6.0 | 11.0 | 0.00 | 0.00 | 0.00 | 65 | 1017.9 |
| 20260509190408 | 69 | 359 | 5.0 | 10.0 | 0.00 | 0.00 | 0.00 | 67 | 1017.9 |
| 20260509185904 | 68 | 37 | 5.0 | 11.0 | 0.00 | 0.00 | 0.00 | 65 | 1018.0 |
| 20260509185404 | 69 | 337 | 4.0 | 11.0 | 0.00 | 0.00 | 0.00 | 67 | 1018.1 |
| 20260509184904 | 69 | 332 | 4.0 | 10.0 | 0.00 | 0.00 | 0.00 | 66 | 1018.2 |
| 20260509184403 | 68 | 302 | 5.0 | 10.0 | 0.00 | 0.00 | 0.00 | 69 | 1018.3 |
| 20260509183903 | 68 | 357 | 5.0 | 11.0 | 0.00 | 0.00 | 0.00 | 67 | 1018.4 |
| 20260509183617 | 67 | 282 | 5.0 | 12.0 | 0.00 | 0.00 | 0.00 | 65 | 1018.4 |
| 20260509182859 | 67 | 354 | 5.0 | 12.0 | 0.00 | 0.00 | 0.00 | 70 | 1018.4 |
| 20260509182853 | 67 | 349 | 4.0 | 9.0 | 0.00 | 0.00 | 0.00 | 67 | 1018.5 |
| 20260509181859 | 67 | 310 | 3.0 | 9.0 | 0.00 | 0.00 | 0.00 | 70 | 1018.5 |
| 20260509181400 | 66 | 36 | 4.0 | 9.0 | 0.00 | 0.00 | 0.00 | 68 | 1018.5 |
| 20260509180859 | 67 | 3 | 4.0 | 9.0 | 0.00 | 0.00 | 0.00 | 71 | 1018.5 |
| 20260509180357 | 65 | 358 | 4.0 | 8.0 | 0.00 | 0.00 | 0.00 | 72 | 1018.5 |
| 20260509175856 | 64 | 42 | 4.0 | 8.0 | 0.00 | 0.00 | 0.00 | 75 | 1018.6 |
| 20260509175357 | 63 | 33 | 4.0 | 8.0 | 0.00 | 0.00 | 0.00 | 75 | 1018.7 |
| 20260509174853 | 63 | 33 | 5.0 | 10.0 | 0.00 | 0.00 | 0.00 | 74 | 1018.7 |
| 20260509174356 | 62 | 15 | 5.0 | 10.0 | 0.00 | 0.00 | 0.00 | 77 | 1018.7 |
| 20260509173853 | 63 | 29 | 4.0 | 8.0 | 0.00 | 0.00 | 0.00 | 72 | 1018.6 |
| 20260509173354 | 61 | 16 | 4.0 | 9.0 | 0.00 | 0.00 | 0.00 | 79 | 1018.6 |
| 20260509172853 | 62 | 43 | 4.0 | 9.0 | 0.00 | 0.00 | 0.00 | 75 | 1018.7 |
| 20260509172350 | 62 | 24 | 4.0 | 8.0 | 0.00 | 0.00 | 0.00 | 76 | 1018.8 |
| 20260509171854 | 61 | 22 | 5.0 | 8.0 | 0.00 | 0.00 | 0.00 | 76 | 1019.0 |
| 20260509171349 | 60 | 358 | 5.0 | 10.0 | 0.00 | 0.00 | 0.00 | 78 | 1019.1 |
| 20260509170849 | 60 | 308 | 5.0 | 10.0 | 0.00 | 0.00 | 0.00 | 78 | 1019.1 |
| 20260509170349 | 60 | 3 | 4.0 | 9.0 | 0.00 | 0.00 | 0.00 | 79 | 1019.0 |
| 20260509165846 | 61 | 358 | 5.0 | 9.0 | 0.00 | 0.00 | 0.00 | 78 | 1019.2 |
| 20260509165610 | 60 | 340 | 5.0 | 9.0 | 0.00 | 0.00 | 0.00 | 78 | 1019.2 |
| 20260509165108 | 59 | 4 | 4.0 | 8.0 | 0.00 | 0.00 | 0.00 | 81 | 1019.2 |
| 20260509164345 | 59 | 44 | 5.0 | 10.0 | 0.00 | 0.00 | 0.00 | 80 | 1019.3 |
| 20260509163843 | 58 | 23 | 6.0 | 10.0 | 0.00 | 0.00 | 0.00 | 81 | 1019.4 |
| 20260509163344 | 58 | 0 | 6.0 | 10.0 | 0.00 | 0.00 | 0.00 | 80 | 1019.5 |
| 20260509162843 | 57 | 13 | 6.0 | 10.0 | 0.00 | 0.00 | 0.00 | 82 | 1019.5 |
| 20260509162343 | 57 | 27 | 6.0 | 9.0 | 0.00 | 0.00 | 0.00 | 82 | 1019.5 |
| 20260509161843 | 57 | 19 | 5.0 | 9.0 | 0.00 | 0.00 | 0.00 | 83 | 1019.6 |
| 20260509161342 | 57 | 327 | 5.0 | 10.0 | 0.00 | 0.00 | 0.00 | 85 | 1019.7 |
| 20260509160839 | 56 | 352 | 5.0 | 10.0 | 0.00 | 0.00 | 0.00 | 85 | 1019.7 |
| 20260509160338 | 56 | 341 | 4.0 | 8.0 | 0.00 | 0.00 | 0.00 | 87 | 1019.6 |
| 20260509155830 | 55 | 8 | 3.0 | 6.0 | 0.00 | 0.00 | 0.00 | 87 | 1019.6 |
| 20260509155333 | 55 | 26 | 3.0 | 6.0 | 0.00 | 0.00 | 0.00 | 88 | 1019.8 |
| 20260509154830 | 55 | 328 | 3.0 | 7.0 | 0.00 | 0.00 | 0.00 | 88 | 1019.7 |
| 20260509154328 | 54 | 332 | 3.0 | 7.0 | 0.00 | 0.00 | 0.00 | 90 | 1019.7 |
| 20260509153827 | 53 | 358 | 3.0 | 7.0 | 0.00 | 0.00 | 0.00 | 88 | 1019.7 |
| 20260509153325 | 54 | 36 | 3.0 | 7.0 | 0.00 | 0.00 | 0.00 | 89 | 1019.8 |
| 20260509152818 | 53 | 308 | 3.0 | 7.0 | 0.00 | 0.00 | 0.00 | 91 | 1019.9 |
| 20260509152317 | 53 | 5 | 3.0 | 6.0 | 0.00 | 0.00 | 0.00 | 91 | 1019.9 |
| 20260509151809 | 53 | 0 | 3.0 | 5.0 | 0.00 | 0.00 | 0.00 | 92 | 1019.8 |
| 20260509151303 | 52 | 325 | 3.0 | 5.0 | 0.00 | 0.00 | 0.00 | 92 | 1019.9 |
| 20260509150808 | 52 | 330 | 3.0 | 6.0 | 0.00 | 0.00 | 0.00 | 92 | 1019.8 |
| 20260509150304 | 51 | 329 | 4.0 | 6.0 | 0.00 | 0.00 | 0.00 | 92 | 1019.8 |
| 20260509145801 | 51 | 1 | 4.0 | 7.0 | 0.00 | 0.00 | 0.00 | 93 | 1019.9 |
| 20260509145301 | 51 | 23 | 4.0 | 7.0 | 0.00 | 0.00 | 0.00 | 92 | 1019.9 |
| 20260509145014 | 51 | 346 | 3.0 | 7.0 | 0.00 | 0.00 | 0.00 | 93 | 1019.9 |
| 20260509144901 | 51 | 354 | 3.0 | 7.0 | 0.00 | 0.00 | 0.00 | 93 | 1019.8 |
| 20260509143802 | 50 | 22 | 3.0 | 7.0 | 0.00 | 0.00 | 0.00 | 94 | 1019.9 |
| 20260509143257 | 50 | 338 | 2.0 | 4.0 | 0.00 | 0.00 | 0.00 | 95 | 1019.9 |
| 20260509142759 | 49 | 12 | 1.0 | 4.0 | 0.00 | 0.00 | 0.00 | 95 | 1019.9 |
| 20260509142259 | 49 | 0 | 1.0 | 2.0 | 0.00 | 0.00 | 0.00 | 95 | 1019.9 |
| 20260509141752 | 49 | 121 | 1.0 | 2.0 | 0.00 | 0.00 | 0.00 | 96 | 1020.0 |
| 20260509141248 | 48 | 121 | 1.0 | 2.0 | 0.00 | 0.00 | 0.00 | 96 | 1020.1 |
| 20260509140748 | 47 | 121 | 0.0 | 2.0 | 0.00 | 0.00 | 0.00 | 95 | 1020.1 |
| 20260509140248 | 47 | 121 | 0.0 | 0.0 | 0.00 | 0.00 | 0.00 | 95 | 1019.9 |
| 20260509135741 | 46 | 121 | 0.0 | 0.0 | 0.00 | 0.00 | 0.00 | 95 | 1020.0 |
| 20260509135240 | 46 | 121 | 0.0 | 0.0 | 0.00 | 0.00 | 0.00 | 95 | 1019.9 |
| 20260509134737 | 45 | 121 | 0.0 | 0.0 | 0.00 | 0.00 | 0.00 | 95 | 1019.9 |
| 20260509134210 | 45 | 121 | 0.0 | 1.0 | 0.00 | 0.00 | 0.00 | 95 | 1020.0 |
| 20260509133707 | 44 | 120 | 1.0 | 2.0 | 0.00 | 0.00 | 0.00 | 94 | 1020.0 |
| 20260509133146 | 44 | 120 | 1.0 | 2.0 | 0.00 | 0.00 | 0.00 | 94 | 1020.0 |
| 20260509133130 | 44 | 120 | 1.0 | 2.0 | 0.00 | 0.00 | 0.00 | 94 | 1020.0 |
| 20260509132144 | 45 | 120 | 1.0 | 3.0 | 0.00 | 0.00 | 0.00 | 95 | 1020.0 |
| 20260509131632 | 44 | 120 | 2.0 | 3.0 | 0.00 | 0.00 | 0.00 | 95 | 1019.9 |
| 20260509131124 | 44 | 194 | 1.0 | 2.0 | 0.00 | 0.00 | 0.00 | 94 | 1019.9 |
| 20260509130823 | 44 | 194 | 1.0 | 2.0 | 0.00 | 0.00 | 0.00 | 94 | 1020.0 |
| 20260509130101 | 44 | 194 | 1.0 | 2.0 | 0.00 | 0.00 | 0.00 | 94 | 1020.2 |
| 20260509125559 | 44 | 309 | 0.0 | 2.0 | 0.00 | 0.00 | 0.00 | 94 | 1020.2 |
| 20260509125542 | 44 | 125 | 0.0 | 0.0 | 0.00 | 0.00 | 0.00 | 94 | 1020.3 |
| 20260509124558 | 44 | 125 | 0.0 | 2.0 | 0.00 | 0.00 | 0.00 | 94 | 1020.3 |
| 20260509124308 | 44 | 125 | 0.0 | 2.0 | 0.00 | 0.00 | 0.00 | 94 | 1020.4 |
| 20260509123542 | 44 | 125 | 0.0 | 1.0 | 0.00 | 0.00 | 0.00 | 94 | 1020.4 |
| 20260509123044 | 44 | 125 | 1.0 | 2.0 | 0.00 | 0.00 | 0.00 | 94 | 1020.4 |
| 20260509122539 | 44 | 125 | 1.0 | 2.0 | 0.00 | 0.00 | 0.00 | 94 | 1020.2 |
| 20260509122029 | 44 | 125 | 1.0 | 2.0 | 0.00 | 0.00 | 0.00 | 94 | 1020.3 |
| 20260509121525 | 45 | 125 | 1.0 | 2.0 | 0.00 | 0.00 | 0.00 | 94 | 1020.3 |
| 20260509121025 | 45 | 125 | 1.0 | 2.0 | 0.00 | 0.00 | 0.00 | 94 | 1020.2 |
| 20260509120522 | 45 | 125 | 0.0 | 2.0 | 0.00 | 0.00 | 0.00 | 94 | 1020.1 |
| 20260509120015 | 45 | 125 | 0.0 | 1.0 | 0.00 | 0.00 | 0.00 | 94 | 1020.3 |
| 20260509115515 | 44 | 125 | 0.0 | 1.0 | 0.00 | 0.00 | 0.00 | 94 | 1020.4 |
| 20260509114953 | 44 | 125 | 0.0 | 1.0 | 0.00 | 0.00 | 0.00 | 94 | 1020.5 |
| 20260509114443 | 45 | 125 | 0.0 | 3.0 | 0.00 | 0.00 | 0.00 | 94 | 1020.4 |
| 20260509113944 | 46 | 125 | 0.0 | 3.0 | 0.00 | 0.00 | 0.00 | 94 | 1020.4 |
| 20260509113446 | 46 | 125 | 0.0 | 0.0 | 0.00 | 0.00 | 0.00 | 94 | 1020.3 |
| 20260509112924 | 46 | 125 | 0.0 | 0.0 | 0.00 | 0.00 | 0.00 | 94 | 1020.3 |
| 20260509112417 | 45 | 125 | 0.0 | 0.0 | 0.00 | 0.00 | 0.00 | 93 | 1020.3 |
| 20260509111844 | 46 | 125 | 0.0 | 0.0 | 0.00 | 0.00 | 0.00 | 93 | 1020.3 |
| 20260509111326 | 46 | 125 | 0.0 | 0.0 | 0.00 | 0.00 | 0.00 | 93 | 1020.3 |
| 20260509110823 | 46 | 125 | 0.0 | 0.0 | 0.00 | 0.00 | 0.00 | 92 | 1020.4 |
| 20260509110325 | 46 | 125 | 0.0 | 0.0 | 0.00 | 0.00 | 0.00 | 93 | 1020.4 |
| 20260509105758 | 46 | 125 | 0.0 | 0.0 | 0.00 | 0.00 | 0.00 | 93 | 1020.5 |
| 20260509105242 | 46 | 125 | 0.0 | 0.0 | 0.00 | 0.00 | 0.00 | 92 | 1020.6 |
| 20260509104730 | 46 | 125 | 0.0 | 0.0 | 0.00 | 0.00 | 0.00 | 92 | 1020.6 |
| 20260509104221 | 46 | 125 | 0.0 | 0.0 | 0.00 | 0.00 | 0.00 | 92 | 1020.6 |
| 20260509103711 | 46 | 125 | 0.0 | 0.0 | 0.00 | 0.00 | 0.00 | 92 | 1020.6 |
| 20260509103429 | 47 | 125 | 0.0 | 0.0 | 0.00 | 0.00 | 0.00 | 91 | 1020.7 |
| 20260509102652 | 47 | 125 | 0.0 | 0.0 | 0.00 | 0.00 | 0.00 | 91 | 1020.7 |
| 20260509102138 | 47 | 125 | 0.0 | 0.0 | 0.00 | 0.00 | 0.00 | 91 | 1020.6 |
| 20260509101630 | 47 | 125 | 0.0 | 0.0 | 0.00 | 0.00 | 0.00 | 93 | 1020.7 |
| 20260509101326 | 47 | 125 | 0.0 | 0.0 | 0.00 | 0.00 | 0.00 | 92 | 1020.8 |
| 20260509100553 | 47 | 125 | 0.0 | 0.0 | 0.00 | 0.00 | 0.00 | 93 | 1020.7 |
| 20260509100016 | 47 | 125 | 0.0 | 1.0 | 0.00 | 0.00 | 0.00 | 93 | 1020.8 |
| 20260509095505 | 47 | 125 | 1.0 | 2.0 | 0.00 | 0.00 | 0.00 | 93 | 1020.8 |
| 20260509095216 | 47 | 125 | 1.0 | 2.0 | 0.00 | 0.00 | 0.00 | 93 | 1021.0 |
| 20260509094657 | 47 | 125 | 1.0 | 2.0 | 0.00 | 0.00 | 0.00 | 93 | 1020.8 |
| 20260509093940 | 48 | 125 | 1.0 | 2.0 | 0.00 | 0.00 | 0.00 | 93 | 1020.8 |
| 20260509093644 | 48 | 125 | 0.0 | 2.0 | 0.00 | 0.00 | 0.00 | 92 | 1020.7 |
| 20260509092921 | 48 | 125 | 0.0 | 0.0 | 0.00 | 0.00 | 0.00 | 92 | 1020.8 |
| 20260509092417 | 48 | 125 | 0.0 | 0.0 | 0.00 | 0.00 | 0.00 | 92 | 1020.7 |
| 20260509091909 | 48 | 125 | 0.0 | 0.0 | 0.00 | 0.00 | 0.00 | 91 | 1020.9 |
| 20260509091412 | 48 | 125 | 0.0 | 1.0 | 0.00 | 0.00 | 0.00 | 91 | 1021.0 |
| 20260509090839 | 48 | 125 | 0.0 | 1.0 | 0.00 | 0.00 | 0.00 | 91 | 1021.0 |
| 20260509090337 | 49 | 125 | 0.0 | 1.0 | 0.00 | 0.00 | 0.00 | 90 | 1021.1 |
| 20260509085836 | 49 | 125 | 0.0 | 1.0 | 0.00 | 0.00 | 0.00 | 90 | 1021.1 |
| 20260509085336 | 49 | 125 | 0.0 | 1.0 | 0.00 | 0.00 | 0.00 | 89 | 1021.1 |
| 20260509085055 | 49 | 125 | 0.0 | 1.0 | 0.00 | 0.00 | 0.00 | 89 | 1021.2 |
| 20260509084333 | 49 | 125 | 0.0 | 1.0 | 0.00 | 0.00 | 0.00 | 90 | 1021.1 |
| 20260509083820 | 49 | 125 | 0.0 | 1.0 | 0.00 | 0.00 | 0.00 | 90 | 1021.2 |
| 20260509083316 | 49 | 125 | 0.0 | 0.0 | 0.00 | 0.00 | 0.00 | 90 | 1021.2 |
| 20260509083035 | 49 | 125 | 0.0 | 0.0 | 0.00 | 0.00 | 0.00 | 90 | 1021.2 |
| 20260509082531 | 50 | 125 | 0.0 | 0.0 | 0.00 | 0.00 | 0.00 | 90 | 1021.2 |
| 20260509081740 | 50 | 125 | 0.0 | 1.0 | 0.00 | 0.00 | 0.00 | 89 | 1021.2 |
| 20260509081504 | 50 | 125 | 0.0 | 1.0 | 0.00 | 0.00 | 0.00 | 90 | 1021.2 |
| 20260509080734 | 50 | 125 | 0.0 | 1.0 | 0.00 | 0.00 | 0.00 | 89 | 1021.3 |
| 20260509080234 | 50 | 125 | 1.0 | 2.0 | 0.00 | 0.00 | 0.00 | 89 | 1021.3 |
| 20260509075731 | 51 | 125 | 1.0 | 2.0 | 0.00 | 0.00 | 0.00 | 88 | 1021.2 |
| 20260509075229 | 51 | 125 | 1.0 | 2.0 | 0.00 | 0.00 | 0.00 | 88 | 1021.2 |
| 20260509074720 | 51 | 125 | 0.0 | 1.0 | 0.00 | 0.00 | 0.00 | 89 | 1021.1 |
| 20260509074440 | 51 | 125 | 0.0 | 0.0 | 0.00 | 0.00 | 0.00 | 88 | 1021.2 |
| 20260509073725 | 51 | 125 | 0.0 | 1.0 | 0.00 | 0.00 | 0.00 | 88 | 1021.2 |
| 20260509073217 | 51 | 125 | 1.0 | 2.0 | 0.00 | 0.00 | 0.00 | 88 | 1021.2 |
| 20260509072654 | 51 | 125 | 1.0 | 2.0 | 0.00 | 0.00 | 0.00 | 88 | 1021.2 |
| 20260509072148 | 51 | 125 | 1.0 | 2.0 | 0.00 | 0.00 | 0.00 | 88 | 1021.3 |
| 20260509071645 | 52 | 125 | 1.0 | 2.0 | 0.00 | 0.00 | 0.00 | 88 | 1021.5 |
| 20260509071148 | 52 | 125 | 1.0 | 2.0 | 0.00 | 0.00 | 0.00 | 87 | 1021.4 |
| 20260509070645 | 52 | 125 | 1.0 | 2.0 | 0.00 | 0.00 | 0.00 | 87 | 1021.4 |
| 20260509070146 | 53 | 125 | 1.0 | 2.0 | 0.00 | 0.00 | 0.00 | 86 | 1021.4 |
| 20260509065639 | 53 | 125 | 1.0 | 3.0 | 0.00 | 0.00 | 0.00 | 87 | 1021.5 |
| 20260509065138 | 52 | 125 | 1.0 | 3.0 | 0.00 | 0.00 | 0.00 | 87 | 1021.4 |
| 20260509064627 | 52 | 45 | 1.0 | 3.0 | 0.00 | 0.00 | 0.00 | 86 | 1021.4 |
| 20260509064112 | 52 | 332 | 1.0 | 2.0 | 0.00 | 0.00 | 0.00 | 87 | 1021.4 |
| 20260509063613 | 53 | 329 | 0.0 | 2.0 | 0.00 | 0.00 | 0.00 | 87 | 1021.4 |
| 20260509063059 | 53 | 329 | 0.0 | 2.0 | 0.00 | 0.00 | 0.00 | 87 | 1021.4 |
| 20260509062559 | 53 | 329 | 0.0 | 0.0 | 0.00 | 0.00 | 0.00 | 86 | 1021.4 |
| 20260509062024 | 53 | 329 | 0.0 | 0.0 | 0.00 | 0.00 | 0.00 | 85 | 1021.4 |
| 20260509061451 | 53 | 329 | 0.0 | 0.0 | 0.00 | 0.00 | 0.00 | 86 | 1021.4 |
| 20260509060937 | 53 | 329 | 0.0 | 0.0 | 0.00 | 0.00 | 0.00 | 85 | 1021.4 |
| 20260509060425 | 53 | 329 | 0.0 | 0.0 | 0.00 | 0.00 | 0.00 | 85 | 1021.4 |
| 20260509055846 | 54 | 329 | 0.0 | 0.0 | 0.00 | 0.00 | 0.00 | 85 | 1021.3 |
| 20260509055342 | 54 | 329 | 0.0 | 0.0 | 0.00 | 0.00 | 0.00 | 85 | 1021.3 |
| 20260509054825 | 54 | 329 | 0.0 | 0.0 | 0.00 | 0.00 | 0.00 | 85 | 1021.3 |
| 20260509054255 | 55 | 329 | 0.0 | 0.0 | 0.00 | 0.00 | 0.00 | 85 | 1021.4 |
| 20260509053740 | 55 | 329 | 0.0 | 0.0 | 0.00 | 0.00 | 0.00 | 84 | 1021.2 |
| 20260509053229 | 55 | 329 | 0.0 | 0.0 | 0.00 | 0.00 | 0.00 | 84 | 1021.3 |
| 20260509052726 | 55 | 329 | 0.0 | 0.0 | 0.00 | 0.00 | 0.00 | 85 | 1021.4 |
| 20260509052225 | 55 | 329 | 0.0 | 0.0 | 0.00 | 0.00 | 0.00 | 85 | 1021.3 |
| 20260509051724 | 55 | 329 | 0.0 | 0.0 | 0.00 | 0.00 | 0.00 | 86 | 1021.3 |
| 20260509051152 | 55 | 329 | 0.0 | 0.0 | 0.00 | 0.00 | 0.00 | 85 | 1021.2 |
| 20260509050638 | 56 | 329 | 0.0 | 0.0 | 0.00 | 0.00 | 0.00 | 81 | 1021.2 |
| 20260509050128 | 56 | 329 | 0.0 | 0.0 | 0.00 | 0.00 | 0.00 | 80 | 1021.2 |
| 20260509045604 | 56 | 329 | 0.0 | 0.0 | 0.00 | 0.00 | 0.00 | 81 | 1021.1 |
| 20260509045535 | 57 | 329 | 0.0 | 0.0 | 0.00 | 0.00 | 0.00 | 81 | 1021.0 |
| 20260509044811 | 57 | 329 | 0.0 | 0.0 | 0.00 | 0.00 | 0.00 | 81 | 1021.0 |
| 20260509044045 | 57 | 329 | 0.0 | 0.0 | 0.00 | 0.00 | 0.00 | 81 | 1021.0 |
| 20260509043523 | 57 | 329 | 0.0 | 1.0 | 0.00 | 0.00 | 0.00 | 80 | 1020.9 |
| 20260509043021 | 58 | 329 | 0.0 | 1.0 | 0.00 | 0.00 | 0.00 | 78 | 1021.0 |
| 20260509042520 | 58 | 329 | 0.0 | 1.0 | 0.00 | 0.00 | 0.00 | 77 | 1021.0 |
| 20260509042018 | 58 | 329 | 0.0 | 0.0 | 0.00 | 0.00 | 0.00 | 76 | 1020.9 |
| 20260509041510 | 59 | 329 | 0.0 | 1.0 | 0.00 | 0.00 | 0.00 | 75 | 1020.8 |
| 20260509041004 | 59 | 329 | 0.0 | 1.0 | 0.00 | 0.00 | 0.00 | 74 | 1020.7 |
| 20260509040719 | 60 | 329 | 1.0 | 2.0 | 0.00 | 0.00 | 0.00 | 73 | 1020.7 |
| 20260509040001 | 60 | 329 | 1.0 | 2.0 | 0.00 | 0.00 | 0.00 | 72 | 1020.6 |
| 20260509035500 | 60 | 329 | 1.0 | 3.0 | 0.00 | 0.00 | 0.00 | 71 | 1020.7 |
| 20260509034955 | 61 | 329 | 2.0 | 4.0 | 0.00 | 0.00 | 0.00 | 69 | 1020.6 |
| 20260509034456 | 61 | 331 | 2.0 | 4.0 | 0.00 | 0.00 | 0.00 | 69 | 1020.5 |
| 20260509033955 | 61 | 314 | 2.0 | 4.0 | 0.00 | 0.00 | 0.00 | 69 | 1020.4 |
| 20260509033458 | 62 | 341 | 2.0 | 4.0 | 0.00 | 0.00 | 0.00 | 67 | 1020.4 |
| 20260509033216 | 62 | 358 | 2.0 | 6.0 | 0.00 | 0.00 | 0.00 | 67 | 1020.2 |
| 20260509032453 | 63 | 349 | 2.0 | 6.0 | 0.00 | 0.00 | 0.00 | 66 | 1020.2 |
| 20260509031952 | 63 | 4 | 2.0 | 6.0 | 0.00 | 0.00 | 0.00 | 65 | 1020.1 |
| 20260509031707 | 63 | 346 | 3.0 | 6.0 | 0.00 | 0.00 | 0.00 | 65 | 1020.1 |
| 20260509031203 | 64 | 346 | 3.0 | 6.0 | 0.00 | 0.00 | 0.00 | 65 | 1020.1 |
| 20260509030706 | 64 | 358 | 3.0 | 6.0 | 0.00 | 0.00 | 0.00 | 65 | 1020.0 |
| 20260509025940 | 64 | 6 | 3.0 | 6.0 | 0.00 | 0.00 | 0.00 | 64 | 1020.0 |
| 20260509025702 | 64 | 348 | 3.0 | 6.0 | 0.00 | 0.00 | 0.00 | 64 | 1020.1 |
| 20260509024928 | 65 | 28 | 3.0 | 6.0 | 0.00 | 0.00 | 0.00 | 64 | 1020.0 |
| 20260509024423 | 65 | 43 | 3.0 | 6.0 | 0.00 | 0.00 | 0.00 | 63 | 1020.1 |
| 20260509023919 | 65 | 357 | 3.0 | 9.0 | 0.00 | 0.00 | 0.00 | 62 | 1020.1 |
| 20260509023420 | 65 | 32 | 4.0 | 9.0 | 0.00 | 0.00 | 0.00 | 62 | 1020.0 |
| 20260509022920 | 66 | 13 | 4.0 | 10.0 | 0.00 | 0.00 | 0.00 | 62 | 1020.0 |
| 20260509022421 | 66 | 18 | 4.0 | 10.0 | 0.00 | 0.00 | 0.00 | 62 | 1020.0 |
| 20260509021918 | 66 | 40 | 5.0 | 9.0 | 0.00 | 0.00 | 0.00 | 61 | 1020.0 |
| 20260509021414 | 67 | 17 | 5.0 | 10.0 | 0.00 | 0.00 | 0.00 | 60 | 1020.0 |
| 20260509020904 | 67 | 331 | 6.0 | 10.0 | 0.00 | 0.00 | 0.00 | 60 | 1019.9 |
| 20260509020406 | 67 | 27 | 5.0 | 10.0 | 0.00 | 0.00 | 0.00 | 59 | 1020.0 |
| 20260509020125 | 67 | 16 | 4.0 | 9.0 | 0.00 | 0.00 | 0.00 | 59 | 1019.9 |
| 20260509015406 | 67 | 58 | 4.0 | 9.0 | 0.00 | 0.00 | 0.00 | 58 | 1019.9 |
| 20260509014904 | 67 | 352 | 5.0 | 9.0 | 0.00 | 0.00 | 0.00 | 58 | 1019.9 |
| 20260509014403 | 67 | 42 | 6.0 | 10.0 | 0.00 | 0.00 | 0.00 | 58 | 1019.9 |
| 20260509014125 | 68 | 11 | 6.0 | 10.0 | 0.00 | 0.00 | 0.00 | 58 | 1019.9 |
| 20260509013401 | 68 | 0 | 5.0 | 11.0 | 0.00 | 0.00 | 0.00 | 56 | 1019.9 |
| 20260509013124 | 68 | 10 | 5.0 | 11.0 | 0.00 | 0.00 | 0.00 | 57 | 1019.9 |
| 20260509012358 | 68 | 44 | 5.0 | 10.0 | 0.00 | 0.00 | 0.00 | 57 | 1019.9 |
| 20260509011859 | 69 | 19 | 5.0 | 10.0 | 0.00 | 0.00 | 0.00 | 57 | 1020.0 |
| 20260509011357 | 69 | 58 | 6.0 | 11.0 | 0.00 | 0.00 | 0.00 | 56 | 1020.0 |
| 20260509010856 | 69 | 28 | 6.0 | 11.0 | 0.00 | 0.00 | 0.00 | 55 | 1020.0 |
| 20260509010357 | 69 | 30 | 6.0 | 12.0 | 0.00 | 0.00 | 0.00 | 55 | 1020.0 |
| 20260509005856 | 69 | 5 | 6.0 | 12.0 | 0.00 | 0.00 | 0.00 | 54 | 1020.2 |
| 20260509005354 | 69 | 29 | 5.0 | 9.0 | 0.00 | 0.00 | 0.00 | 55 | 1020.2 |
| 20260509004852 | 69 | 15 | 5.0 | 12.0 | 0.00 | 0.00 | 0.00 | 57 | 1020.1 |
| 20260509004352 | 69 | 17 | 6.0 | 12.0 | 0.00 | 0.00 | 0.00 | 55 | 1020.3 |
| 20260509003851 | 69 | 29 | 7.0 | 13.0 | 0.00 | 0.00 | 0.00 | 56 | 1020.3 |
| 20260509003350 | 70 | 27 | 6.0 | 13.0 | 0.00 | 0.00 | 0.00 | 54 | 1020.2 |
| 20260509002850 | 71 | 13 | 6.0 | 10.0 | 0.00 | 0.00 | 0.00 | 54 | 1020.2 |
| 20260509002349 | 71 | 0 | 6.0 | 10.0 | 0.00 | 0.00 | 0.00 | 53 | 1020.3 |
| 20260509001849 | 71 | 352 | 6.0 | 11.0 | 0.00 | 0.00 | 0.00 | 53 | 1020.2 |
| 20260509001348 | 71 | 25 | 6.0 | 11.0 | 0.00 | 0.00 | 0.00 | 51 | 1020.2 |
| 20260509000846 | 71 | 351 | 6.0 | 11.0 | 0.00 | 0.00 | 0.00 | 52 | 1020.2 |
| 20260509000344 | 71 | 352 | 6.0 | 11.0 | 0.00 | 0.00 | 0.00 | 52 | 1020.2 |
| 20260508235840 | 71 | 17 | 5.0 | 14.0 | 0.00 | 0.00 | 0.00 | 51 | 1020.1 |
| 20260508235341 | 71 | 316 | 5.0 | 14.0 | 0.00 | 0.00 | 0.00 | 50 | 1020.2 |
| 20260508235108 | 71 | 352 | 5.0 | 10.0 | 0.00 | 0.00 | 0.00 | 53 | 1020.1 |
| 20260508234557 | 71 | 19 | 6.0 | 10.0 | 0.00 | 0.00 | 0.00 | 51 | 1020.2 |
| 20260508234059 | 71 | 353 | 6.0 | 9.0 | 0.00 | 0.00 | 0.00 | 52 | 1020.3 |
| 20260508233337 | 72 | 39 | 6.0 | 9.0 | 0.00 | 0.00 | 0.00 | 50 | 1020.3 |